Phumi Sere, Cambodia

4:06 PM +07 on June 29, 2017 (GMT +0700)
Siem Reap | | Change Station

Elev 49 ft 13.37 °N, 103.85 °E | Updated 36 minutes ago

Partly Cloudy
Partly Cloudy
88 °F
Feels Like 98 °F
N
6
Wind Variable Wind from SSW

Today
High -- | Low -- °F
--% Chance of Precip.
Yesterday
High -- | Low -- °F
Precip. -- in
Pressure 29.65 in
Visibility 6.2 miles
Clouds Scattered Clouds 1500 ft
Few 1700 ft
Scattered Clouds 4000 ft
Heat Index 98 °F
Dew Point 75 °F
Humidity 66%
Rainfall 0.00 in
Snow Depth Not available.
5:40 AM 6:35 PM
Waxing Crescent, 33% visible
METAR VDSR 290830Z 20005KT 9999 SCT015 FEW017CB SCT040 31/24 Q1004 CB:S/E
Pressure 29.65 in
Visibility 6.2 miles
Clouds Scattered Clouds 1500 ft
Few 1700 ft
Scattered Clouds 4000 ft
Heat Index 98 °F
Dew Point 75 °F
Humidity 66%
Rainfall 0.00 in
Snow Depth Not available.
5:40 AM 6:35 PM
Waxing Crescent, 33% visible
METAR VDSR 290830Z 20005KT 9999 SCT015 FEW017CB SCT040 31/24 Q1004 CB:S/E

Get Severe Weather Alerts

Thanks for signing up!

Be on the lookout for a verification email in your inbox.

You'll start receiving the daily forecast at 6 AM.

×

10-Day Weather Forecast

No radar image for this location.
×

Almanac

Astronomy

Jun. 29, 2017 Rise Set
Actual Time
Civil Twilight
Nautical Twilight
Astronomical Twilight
Moon
Length of Visible Light
Length of Day
Tomorrow will be .
, % of the Moon is Illuminated

Today's Extremes

Country Highs Country Lows

Community

WunderPhotos

Category 6

Welcome to Category 6. This is the collective home for Weather Underground's featured writeups by Dr. Jeff Masters (right), Bob Henson (left), Chris Burt, and other regular contributors.

Nearby

Air Quality

  Air Quality AQ Index Pollutant
Not available.

Snow Depth

Station Depth Elevation

Earthquake Activity

City Distance Mag. Time & Date
Minimum magnitude displayed is 2.5.

Coastal Water Temperatures

Place Temperature

Stations

Nearby Weather Stations

Station Location Temp. Windchill Dew Point Humidity Wind Precip. Elev Updated Type